{"data":{"norad_id":58175,"epoch":"2026-05-25T04:33:37.372896Z","epoch_age_seconds":62069,"freshness":"FRESH","line1":"1 58175U 23167A   26145.19001589  .00000802  00000+0  38675-4 0  9998","line2":"2 58175  43.0041  71.4782 0001272 246.0581 114.0138 15.27577162142689","mean_motion":15.27577162,"eccentricity":0.0001272,"inclination_deg":43.0041,"raan_deg":71.4782,"arg_perigee_deg":246.0581,"mean_anomaly_deg":114.0138,"bstar":3.8675e-5,"rev_number":14268,"period_min":94.266923846561,"perigee_km":482.18485009341,"apogee_km":483.93033799814,"semimajor_km":6861.1945940458,"source":"CELESTRAK","updated_at":"2026-05-25T13:38:18.566701Z"}}